Location: Saint Louis
(38.6272°N, 90.1978°W)
Time: 02:11:56
(UTC-05:00)

Hubble Space Telescope - Visible Passes

Search period start: 23 May 2018 00:00
Search period end: 02 June 2018 00:00
Orbit: 537 x 541 km, 28.5° (Epoch: 22 May)

Date Brightness Start Highest point End Pass type
(mag) Time Alt. Az. Time Alt. Az. Time Alt. Az.
28 May 3.0 04:39:55 10° S 04:41:17 11° SSE 04:42:39 10° SE visible
29 May 2.9 04:29:15 11° S 04:30:50 13° SSE 04:32:50 10° SE visible
30 May 2.7 04:19:18 14° S 04:20:22 15° SSE 04:22:46 10° SE visible
31 May 2.5 04:09:23 16° S 04:09:55 17° S 04:12:35 10° SE visible
01 Jun 2.5 03:59:29 18° S 03:59:29 18° S 04:02:19 10° SE visible
